Weather History for Whitefield, NH

Change the Weather History Date:

Sunday, January 27, 2013

  Actual Average Record
Temperature  
Mean Temperature 4 °F -  
Max Temperature 16 °F 22 °F 43 °F (2002)
Min Temperature -9 °F 0 °F -25 °F (2003)
Degree Days  
Heating Degree Days 62    
Moisture  
Dew Point -8 °F    
Average Humidity 71    
Maximum Humidity 85    
Minimum Humidity 38    
Precipitation  
Precipitation 0.00 in - - ()
Sea Level Pressure  
Sea Level Pressure 30.36 in    
Wind  
Wind Speed 2 mph (WSW)    
Max Wind Speed 12 mph    
Max Gust Speed -    
Visibility 10 miles    
Events      
Averages and records for this station are not official NWS values.
T = Trace of Precipitation, MM = Missing Value Source: NWS Daily Summary

Daily Weather History Graph

Daily Weather History Graph

Search for Another Location

Airport:

Trip Planner

Search our weather history database for the weather conditions in past years. The results will help you decide how hot, cold, wet, or windy it might be!

Date:

Astronomy

Jan. 27, 2013 Rise Set
Actual Time 7:09 AM EST 4:49 PM EST
Civil Twilight 6:38 AM EST 5:20 PM EST
Nautical Twilight 6:03 AM EST 5:55 PM EST
Astronomical Twilight 5:28 AM EST 6:29 PM EST
Moon 5:44 PM EST (1/27) 6:57 AM EST (1/27)
Length of Visible Light 10h 42m
Length of Day
9h 39m
Full, 100% of the Moon is Illuminated
Jan 27
Full
Feb 3
Last Quarter
Feb 10
New
Feb 17
First Quarter
Feb 25
Full

Hourly Weather History & Observations

Time (EST) Temp. Windchill Dew Point Humidity Pressure Visibility Wind Dir Wind Speed Gust Speed Precip Events Conditions
12:11 AM 3.2 °F -4.2 °F -0.4 °F 85% 30.17 in 9.0 mi South 3.5 mph - N/A   Overcast
12:18 AM 5.0 °F -4.1 °F -0.4 °F 78% 30.17 in 10.0 mi SSW 4.6 mph - N/A   Overcast
12:30 AM 5.0 °F -4.1 °F -0.4 °F 78% 30.17 in 10.0 mi Variable 4.6 mph - N/A   Overcast
12:52 AM 5.0 °F - -0.9 °F 76% 30.26 in 10.0 mi Calm Calm - N/A   Overcast
1:07 AM 5.0 °F -2.1 °F -0.4 °F 78% 30.18 in 10.0 mi SW 3.5 mph - N/A   Overcast
1:38 AM 3.2 °F -4.2 °F -2.2 °F 78% 30.19 in 10.0 mi WSW 3.5 mph - N/A   Scattered Clouds
1:52 AM 3.9 °F - -2.9 °F 73% 30.28 in 10.0 mi Calm Calm - N/A   Clear
2:52 AM -0.9 °F - -6.0 °F 79% 30.30 in 10.0 mi Calm Calm - N/A   Scattered Clouds
3:07 AM -2.2 °F -10.4 °F -7.6 °F 78% 30.22 in 10.0 mi SW 3.5 mph - N/A   Mostly Cloudy
3:14 AM -2.2 °F - -5.8 °F 85% 30.22 in 10.0 mi Calm Calm - N/A   Partly Cloudy
3:43 AM 1.4 °F -8.3 °F -2.2 °F 85% 30.22 in 10.0 mi SSW 4.6 mph - N/A   Mostly Cloudy
3:52 AM -2.9 °F - -8.0 °F 79% 30.32 in 10.0 mi Calm Calm - N/A   Mostly Cloudy
4:26 AM -5.8 °F - -9.4 °F 84% 30.23 in 10.0 mi Calm Calm - N/A   Scattered Clouds
4:52 AM -6.0 °F - -11.0 °F 79% 30.34 in 10.0 mi Calm Calm - N/A   Mostly Cloudy
5:52 AM -7.1 °F - -13.0 °F 75% 30.37 in 10.0 mi Calm Calm - N/A   Overcast
6:23 AM -7.6 °F - -13.0 °F 77% 30.29 in 8.0 mi Calm Calm - N/A   Overcast
6:40 AM -7.6 °F - -14.8 °F 71% 30.30 in 7.0 mi Calm Calm - N/A   Overcast
6:52 AM -9.0 °F - -14.1 °F 79% 30.40 in 10.0 mi Calm Calm - N/A   Mostly Cloudy
6:57 AM -7.6 °F - -14.8 °F 71% 30.30 in 10.0 mi Calm Calm - N/A   Scattered Clouds
7:30 AM -9.4 °F - -14.8 °F 77% 30.32 in 10.0 mi Calm Calm - N/A   Mostly Cloudy
7:52 AM -9.0 °F -18.2 °F -15.0 °F 75% 30.42 in 8.0 mi South 3.5 mph - N/A   Overcast
8:05 AM -7.6 °F - -13.0 °F 77% 30.33 in 10.0 mi Calm Calm - N/A   Overcast
8:32 AM -7.6 °F - -13.0 °F 77% 30.34 in 10.0 mi Calm Calm - N/A   Scattered Clouds
8:52 AM -4.0 °F - -9.9 °F 76% 30.43 in 10.0 mi Calm Calm - N/A   Clear
9:52 AM 6.1 °F -2.8 °F -2.9 °F 67% 30.45 in 10.0 mi WNW 4.6 mph - N/A   Partly Cloudy
10:52 AM 9.0 °F 2.4 °F -2.9 °F 59% 30.45 in 10.0 mi Variable 3.5 mph - N/A   Clear
11:52 AM 10.9 °F 2.9 °F -2.9 °F 54% 30.44 in 10.0 mi Variable 4.6 mph - N/A   Clear
12:52 PM 14.0 °F 3.9 °F -4.0 °F 45% 30.43 in 10.0 mi Variable 6.9 mph - N/A   Clear
1:52 PM 16.0 °F 2.9 °F -5.1 °F 39% 30.43 in 10.0 mi WNW 11.5 mph - N/A   Clear
2:52 PM 16.0 °F 10.4 °F -5.1 °F 39% 30.43 in 10.0 mi WNW 3.5 mph - N/A   Clear
3:52 PM 16.0 °F 7.4 °F -6.0 °F 38% 30.45 in 10.0 mi West 5.8 mph - N/A   Clear
4:52 PM 12.9 °F 6.9 °F -7.1 °F 41% 30.47 in 10.0 mi WNW 3.5 mph - N/A   Clear
5:52 PM 5.0 °F -2.1 °F -6.0 °F 61% 30.51 in 10.0 mi SW 3.5 mph - N/A   Clear
6:52 PM 1.0 °F - -8.0 °F 66% 30.52 in 10.0 mi Calm Calm - N/A   Clear
7:52 PM -2.9 °F - -9.9 °F 72% 30.52 in 10.0 mi Calm Calm - N/A   Clear
8:52 PM -6.0 °F - -11.0 °F 79% 30.52 in 10.0 mi Calm Calm - N/A   Clear
9:52 PM -8.0 °F - -14.1 °F 75% 30.50 in 10.0 mi Calm Calm - N/A   Clear
10:52 PM -8.0 °F - -15.0 °F 71% 30.49 in 10.0 mi Calm Calm - N/A   Clear
11:52 PM -9.0 °F - -15.0 °F 75% 30.50 in 10.0 mi Calm Calm - N/A   Clear